Location: Bühlhof
(48.7849°N, 8.6361°E)
Time: 07:11:59
(UTC+00:00)

BlueWalker 3 - Visible Passes

Search period start: 12 March 2026 00:00
Search period end: 22 March 2026 00:00
Orbit: 451 x 458 km, 53.2° (Epoch: 11 March)

Date Brightness Start Highest point End Pass type
(mag) Time Alt. Az. Time Alt. Az. Time Alt. Az.
12 Mar 5.2 02:15:31 11° ENE 02:15:31 11° ENE 02:15:42 10° ENE visible
12 Mar 2.4 03:49:12 38° NNW 03:50:09 49° NNE 03:53:40 10° E visible
13 Mar 2.9 03:14:27 41° NE 03:14:27 41° NE 03:17:24 10° E visible
13 Mar 1.8 04:48:08 11° WNW 04:51:31 64° SSW 04:55:04 10° SE visible
14 Mar 4.3 02:39:46 20° ENE 02:39:46 20° ENE 02:41:09 10° E visible
14 Mar 1.6 04:13:27 26° WNW 04:15:21 79° SSW 04:18:56 10° ESE visible
15 Mar 1.6 03:38:52 74° NW 03:39:10 87° NNE 03:42:46 10° ESE visible
16 Mar 3.2 03:04:23 34° E 03:04:23 34° E 03:06:33 10° ESE visible
16 Mar 2.9 04:38:06 16° W 04:40:09 25° SW 04:43:09 10° SSE visible
17 Mar 4.8 02:30:04 11° ESE 02:30:04 11° ESE 02:30:17 10° ESE visible
17 Mar 2.5 04:03:47 32° SW 04:04:01 32° SW 04:07:14 10° SSE visible
18 Mar 3.4 03:29:40 22° SSE 03:29:40 22° SSE 03:31:14 10° SE visible
